When you browse on this site, cookies collect data to enhance your experience and personalize the content and advertising you see.
Visit our Privacy Policy to learn more. By continuing to use the site, you agree to this use of cookies and data.
  • In Denmark
  • List of Countries
  • For 7 days
  • Water Temperature
  • Satellite Maps
  • Weather Map
  • Weather Widgets
  • user-avatar
    Login

    Hourly Weather Yeghegnadzor

    Today, 25 April, Thursday

    Time Temperature Precipitation Wind Pressure Humidity
    00:00 +4°C° 0.1 mm 0 mps 656 mmHg 67%
    01:00 +5°C° 0.1 mm 1 mps 656 mmHg 68%
    02:00 +5°C° 0.1 mm 1 mps 656 mmHg 69%
    03:00 +5°C° 0.1 mm 1 mps 656 mmHg 70%
    04:00 +5°C° 0.1 mm 1 mps 656 mmHg 70%
    05:00 +5°C° 0.1 mm 1 mps 657 mmHg 70%
    06:00 +5°C° 0.1 mm 1 mps 657 mmHg 70%
    07:00 +6°C° 0.1 mm 1 mps 657 mmHg 67%
    08:00 +7°C° 0.1 mm 1 mps 657 mmHg 63%
    09:00 +8°C° 0.1 mm 1 mps 657 mmHg 60%
    10:00 +9°C° 0.1 mm 1 mps 657 mmHg 59%
    11:00 +10°C° 0.1 mm 1 mps 657 mmHg 58%
    12:00 +9°C° 0.1 mm 2 mps 657 mmHg 56%
    13:00 +11°C° 0.2 mm 1 mps 657 mmHg 56%
    14:00 +11°C° 0.2 mm 1 mps 657 mmHg 56%
    15:00 +11°C° 0.2 mm 1 mps 656 mmHg 55%
    16:00 +11°C° 0.1 mm 1 mps 656 mmHg 56%
    17:00 +10°C° 0.1 mm 1 mps 656 mmHg 57%
    18:00 +10°C° 0.1 mm 1 mps 656 mmHg 58%
    19:00 +8°C° 0 mm 1 mps 656 mmHg 61%
    20:00 +6°C° 0 mm 2 mps 656 mmHg 64%
    21:00 +5°C° 0 mm 2 mps 656 mmHg 67%
    22:00 +5°C° 0 mm 2 mps 657 mmHg 68%
    23:00 +4°C° 0 mm 2 mps 657 mmHg 69%

    Tomorrow, 26 April, Friday

    Time Temperature Precipitation Wind Pressure Humidity
    00:00 +4°C° 0 mm 2 mps 657 mmHg 69%
    01:00 +4°C° 0 mm 2 mps 657 mmHg 69%
    02:00 +3°C° 0 mm 2 mps 656 mmHg 69%
    03:00 +3°C° 0 mm 2 mps 656 mmHg 69%
    04:00 +3°C° 0 mm 2 mps 656 mmHg 68%
    05:00 +3°C° 0 mm 2 mps 656 mmHg 66%
    06:00 +3°C° 0 mm 2 mps 657 mmHg 64%
    07:00 +5°C° 0 mm 2 mps 657 mmHg 60%
    08:00 +8°C° 0 mm 1 mps 657 mmHg 56%
    09:00 +10°C° 0 mm 1 mps 657 mmHg 52%
    10:00 +11°C° 0 mm 1 mps 657 mmHg 52%
    11:00 +11°C° 0 mm 1 mps 657 mmHg 53%
    12:00 +12°C° 0 mm 1 mps 656 mmHg 53%
    13:00 +12°C° 0 mm 1 mps 656 mmHg 53%
    14:00 +13°C° 0 mm 1 mps 656 mmHg 52%
    15:00 +13°C° 0 mm 1 mps 655 mmHg 52%
    16:00 +13°C° 0.1 mm 1 mps 655 mmHg 52%
    17:00 +12°C° 0.1 mm 1 mps 655 mmHg 52%
    18:00 +12°C° 0.1 mm 1 mps 655 mmHg 52%
    19:00 +11°C° 0 mm 1 mps 655 mmHg 55%
    20:00 +9°C° 0 mm 1 mps 655 mmHg 59%
    21:00 +7°C° 0 mm 2 mps 655 mmHg 62%
    22:00 +6°C° 0 mm 2 mps 655 mmHg 64%
    23:00 +6°C° 0 mm 2 mps 655 mmHg 65%

    Day after tomorrow, 27 April, Saturday

    Time Temperature Precipitation Wind Pressure Humidity
    00:00 +5°C° 0 mm 2 mps 655 mmHg 67%
    01:00 +5°C° 0 mm 2 mps 655 mmHg 67%
    02:00 +5°C° 0 mm 2 mps 655 mmHg 67%
    03:00 +4°C° 0 mm 2 mps 655 mmHg 67%
    04:00 +5°C° 0 mm 2 mps 655 mmHg 66%
    05:00 +6°C° 0 mm 1 mps 655 mmHg 64%
    06:00 +6°C° 0 mm 1 mps 655 mmHg 63%
    07:00 +8°C° 0 mm 1 mps 655 mmHg 60%
    08:00 +10°C° 0 mm 1 mps 655 mmHg 57%
    09:00 +11°C° 0 mm 1 mps 655 mmHg 54%
    10:00 +12°C° 0 mm 2 mps 655 mmHg 52%
    11:00 +13°C° 0 mm 2 mps 655 mmHg 51%
    12:00 +14°C° 0 mm 2 mps 655 mmHg 49%
    13:00 +14°C° 0 mm 2 mps 655 mmHg 47%
    14:00 +14°C° 0 mm 2 mps 654 mmHg 45%
    15:00 +15°C° 0 mm 2 mps 654 mmHg 42%
    16:00 +14°C° 0 mm 2 mps 654 mmHg 41%
    17:00 +13°C° 0 mm 2 mps 654 mmHg 41%
    18:00 +13°C° 0 mm 1 mps 653 mmHg 40%
    19:00 +12°C° 0 mm 1 mps 653 mmHg 40%
    20:00 +10°C° 0 mm 1 mps 653 mmHg 41%
    21:00 +9°C° 0 mm 1 mps 653 mmHg 42%
    22:00 +9°C° 0 mm 1 mps 653 mmHg 42%
    23:00 +8°C° 0 mm 1 mps 653 mmHg 43%

    28 April, Sunday

    Time Temperature Precipitation Wind Pressure Humidity
    00:00 +8°C° 0 mm 1 mps 653 mmHg 44%
    01:00 +8°C° 0 mm 1 mps 652 mmHg 47%
    02:00 +6°C° 0 mm 2 mps 652 mmHg 50%
    03:00 +6°C° 0 mm 2 mps 652 mmHg 53%
    04:00 +6°C° 0 mm 2 mps 652 mmHg 55%
    05:00 +7°C° 0 mm 2 mps 652 mmHg 56%
    06:00 +7°C° 0 mm 2 mps 652 mmHg 57%
    07:00 +9°C° 0 mm 2 mps 652 mmHg 54%
    08:00 +10°C° 0 mm 2 mps 652 mmHg 51%
    09:00 +13°C° 0 mm 2 mps 653 mmHg 48%
    10:00 +14°C° 0 mm 2 mps 652 mmHg 48%
    11:00 +15°C° 0 mm 2 mps 652 mmHg 47%
    12:00 +15°C° 0 mm 2 mps 652 mmHg 47%
    13:00 +16°C° 0 mm 2 mps 652 mmHg 46%
    14:00 +16°C° 0 mm 2 mps 651 mmHg 46%
    15:00 +17°C° 0 mm 3 mps 651 mmHg 45%
    16:00 +16°C° 0 mm 2 mps 651 mmHg 45%
    17:00 +16°C° 0 mm 2 mps 651 mmHg 46%
    18:00 +15°C° 0 mm 1 mps 651 mmHg 46%
    19:00 +14°C° 0 mm 1 mps 651 mmHg 49%
    20:00 +13°C° 0 mm 1 mps 651 mmHg 52%
    21:00 +12°C° 0 mm 1 mps 651 mmHg 55%
    22:00 +11°C° 0 mm 1 mps 651 mmHg 57%
    23:00 +10°C° 0 mm 1 mps 651 mmHg 59%

    29 April, Monday

    Time Temperature Precipitation Wind Pressure Humidity
    00:00 +10°C° 0 mm 1 mps 651 mmHg 60%
    01:00 +9°C° 0 mm 1 mps 651 mmHg 62%
    02:00 +9°C° 0 mm 1 mps 651 mmHg 63%
    03:00 +9°C° 0 mm 1 mps 651 mmHg 64%
    04:00 +9°C° 0 mm 1 mps 651 mmHg 64%
    05:00 +9°C° 0 mm 1 mps 651 mmHg 64%
    06:00 +10°C° 0 mm 1 mps 651 mmHg 64%
    07:00 +10°C° 0 mm 2 mps 652 mmHg 62%
    08:00 +13°C° 0 mm 2 mps 652 mmHg 60%
    09:00 +15°C° 0 mm 2 mps 652 mmHg 58%
    10:00 +16°C° 0 mm 2 mps 652 mmHg 56%
    11:00 +16°C° 0 mm 2 mps 652 mmHg 55%
    12:00 +17°C° 0 mm 3 mps 652 mmHg 53%
    13:00 +18°C° 0.2 mm 3 mps 652 mmHg 52%
    14:00 +18°C° 0.2 mm 3 mps 651 mmHg 52%
    15:00 +18°C° 0.2 mm 3 mps 651 mmHg 51%
    16:00 +18°C° 0.4 mm 3 mps 651 mmHg 53%
    17:00 +17°C° 0.4 mm 3 mps 651 mmHg 55%
    18:00 +16°C° 0.4 mm 2 mps 650 mmHg 58%
    19:00 +15°C° 0.1 mm 2 mps 651 mmHg 60%
    20:00 +14°C° 0.1 mm 2 mps 651 mmHg 63%
    21:00 +13°C° 0.1 mm 2 mps 651 mmHg 66%
    22:00 +12°C° 0 mm 2 mps 651 mmHg 66%
    23:00 +12°C° 0 mm 2 mps 651 mmHg 67%

    30 April, Tuesday

    Time Temperature Precipitation Wind Pressure Humidity
    00:00 +10°C° 0 mm 2 mps 650 mmHg 67%
    01:00 +10°C° 0 mm 2 mps 650 mmHg 69%
    02:00 +10°C° 0 mm 2 mps 650 mmHg 72%
    03:00 +9°C° 0 mm 2 mps 650 mmHg 74%
    04:00 +10°C° 0 mm 2 mps 651 mmHg 74%
    05:00 +10°C° 0 mm 2 mps 651 mmHg 74%
    06:00 +10°C° 0 mm 2 mps 651 mmHg 74%
    07:00 +12°C° 0 mm 2 mps 652 mmHg 70%
    08:00 +13°C° 0 mm 2 mps 652 mmHg 65%
    09:00 +15°C° 0 mm 2 mps 652 mmHg 61%
    10:00 +16°C° 0 mm 2 mps 652 mmHg 56%
    11:00 +17°C° 0 mm 2 mps 652 mmHg 52%
    12:00 +18°C° 0 mm 3 mps 652 mmHg 47%
    13:00 +18°C° 0 mm 2 mps 652 mmHg 44%
    14:00 +19°C° 0 mm 2 mps 652 mmHg 41%
    15:00 +19°C° 0 mm 2 mps 652 mmHg 38%
    16:00 +19°C° 0.1 mm 2 mps 652 mmHg 39%
    17:00 +19°C° 0.1 mm 1 mps 651 mmHg 40%
    18:00 +19°C° 0.1 mm 1 mps 651 mmHg 42%
    19:00 +18°C° 0.1 mm 1 mps 651 mmHg 44%
    20:00 +15°C° 0.1 mm 1 mps 652 mmHg 46%
    21:00 +14°C° 0.1 mm 1 mps 652 mmHg 48%
    22:00 +13°C° 0 mm 1 mps 652 mmHg 50%
    23:00 +13°C° 0 mm 1 mps 652 mmHg 52%
    Show more